ROMMA est une association bénévole à but non lucratif. Votre soutien est indispensable : ADHERER à ROMMA ou FAIRE un DON

Le Versoud - (38, Isère)

Vallée du Grésivaudan (220 m)   Longitude: 05° 51' 44" E   Latitude: 45° 13' 06" N Station partenaire n°6
 

Détail journalier du     <<     >>

Température Humidité Pression Vent Dir Rafale Dir. rafale Ensol.
Heure (°C) (%) (hPa) (km/h) (km/h) (min)
01:00 23.275102000---0
02:00 22.577102000---0
03:00 21.780102000---0
04:00 21.775102000---0
05:00 20.979102100---0
06:00 20.381102100---0
07:00 20.282102100---0
08:00 20.980102200---10
09:00 23.471102200---35
10:00 26.360102102N55
11:00 27.651102103N60
12:00 29.746102103N60
13:00 31.244102005NNE50
14:00 32.341101903NNE45
15:00 32.34110191N8NNE5
16:00 33.73910181NNO11NNE60
17:00 35.631101805NNO60
18:00 35.630101705NNO60
19:00 35.733101703NNO60
20:00 33.847101700---45
21:00 30.456101702NNO15
22:00 27.859101802NNO0
23:00 26.364101805NNO0
minuit 24.768101800---0

Graphique du 22-07-2019

 

Serveur OMMA